Location: *
(49.5667°N, 1.3667°W)
Time: 06:05:52
(UTC+00:00)

SL-8 Rocket - Pass Details

Date: 20 September 2019
Orbit: 956 x 991 km, 82.9° (Epoch: 16 October)

Event Time Altitude Azimuth Distance (km) Brightness Sun altitude
Rises 19:46:24 0° 350° (N) 3,672 7.5 -16.3°
Reaches altitude 10° 19:48:56 10° 352° (N) 2,717 6.7 -16.7°
Maximum altitude 19:55:10 84° 80° (E) 973 3.9 -17.6°
Drops below altitude 10° 20:01:19 10° 170° (S) 2,683 6.0 -18.5°
Enters shadow 20:01:20 10° 170° (S) 2,687 6.0 -18.5°
